EW3708 Weather Reports


time (UTC)temp
F
wind
direction
speed
knots
gust
knots
rain 1hr
in
rain 24hr
in
rain mn
in
humidity
%
barometer
mb
20260903100033 64 193 0.0 1.7 0.00 0.63 0.28 96 1015.0
20260903094542 64 193 0.0 0.9 0.00 0.63 0.28 96 1015.2
20260903093023 64 193 0.0 1.7 0.00 0.63 0.28 96 1015.0
20260903091533 64 193 0.0 1.7 0.00 0.63 0.28 96 1014.5
20260903090022 64 221 0.9 2.6 0.00 0.63 0.28 96 1014.3
20260903084520 64 177 0.0 1.7 0.00 0.63 0.28 96 1014.4
20260903083018 64 177 0.0 0.9 0.01 0.63 0.28 96 1014.5
20260903081518 64 177 0.0 0.9 0.04 0.63 0.28 96 1014.6
20260903080018 64 177 0.0 1.7 0.08 0.63 0.28 96 1014.8
20260903074516 64 176 0.0 2.6 0.11 0.63 0.28 96 1014.4
20260903073028 64 204 0.9 2.6 0.12 0.62 0.28 96 1014.4
20260903071518 64 148 0.9 2.6 0.10 0.59 0.25 96 1014.7
20260903070013 64 240 0.0 1.7 0.06 0.55 0.21 96 1016.1
20260903064510 64 234 0.9 2.6 0.03 0.52 0.18 96 1016.4
20260903063011 64 234 0.0 0.9 0.02 0.50 0.16 96 1015.7
20260903061509 64 234 0.0 1.7 0.03 0.49 0.15 96 1015.3
20260903060007 64 338 0.0 1.7 0.05 0.49 0.15 96 1015.5
20260903054505 64 338 0.0 1.7 0.07 0.49 0.15 96 1015.8
20260903053003 64 338 0.0 1.7 0.08 0.48 0.14 96 1016.1
20260903051502 64 338 0.0 1.7 0.09 0.46 0.12 96 1016.6
20260903050001 64 338 0.0 1.7 0.10 0.44 0.10 96 1016.8
20260903044601 64 338 0.0 1.7 0.10 0.42 0.08 96 1016.5
20260903043201 64 338 0.0 0.9 0.13 0.40 0.06 96 1016.5
20260903041602 65 338 0.0 0.9 0.27 0.37 0.03 96 1016.6
20260903040053 65 338 0.0 1.7 0.28 0.34 0.00 96 1017.4
20260903034552 65 338 0.0 0.9 0.30 0.32 0.32 96 1017.9
20260903033053 65 338 0.9 1.7 0.26 0.27 0.27 96 1018.9
20260903031554 65 289 2.6 6.1 0.09 0.10 0.10 96 1018.5
20260903030050 65 165 0.9 2.6 0.04 0.05 0.05 96 1017.5
20260903024549 65 186 0.9 2.6 0.01 0.02 0.02 96 1016.8
20260903023049 65 196 0.9 1.7 0.00 0.01 0.01 96 1016.8
20260903021548 65 196 0.0 1.7 0.00 0.01 0.01 96 1016.7
20260903020048 65 196 0.0 1.7 0.00 0.01 0.01 96 1017.3
20260903014550 65 196 0.9 1.7 0.00 0.01 0.01 96 1016.9
20260903013055 65 198 0.0 2.6 0.00 0.01 0.01 96 1017.4
20260903011546 65 156 0.0 1.7 0.00 0.01 0.01 96 1016.9
20260903010048 65 159 0.0 1.7 0.00 0.01 0.01 96 1016.5
20260903004544 65 159 0.0 1.7 0.00 0.01 0.01 95 1016.6
20260903003045 65 158 0.0 1.7 0.00 0.01 0.01 95 1016.7
20260903001543 65 162 0.9 2.6 0.00 0.01 0.01 95 1016.7
20260903000044 65 163 0.0 1.7 0.00 0.01 0.01 95 1016.8
20260902234548 65 163 0.0 1.7 0.00 0.02 0.01 95 1016.5
20260902233040 65 144 0.0 2.6 0.00 0.02 0.01 95 1016.2
20260902231540 65 252 0.9 2.6 0.00 0.02 0.01 95 1016.2
20260902230040 66 189 0.9 2.6 0.00 0.02 0.01 95 1016.4
20260902224600 66 202 0.0 1.7 0.00 0.02 0.01 95 1016.6
20260902223038 66 188 0.0 2.6 0.00 0.02 0.01 95 1016.6
20260902221538 66 159 0.9 2.6 0.00 0.02 0.01 95 1016.8
20260902220040 66 161 0.9 2.6 0.00 0.02 0.01 95 1016.9
20260902214536 66 170 0.0 1.7 0.00 0.11 0.01 96 1016.9
20260902213036 66 170 0.9 2.6 0.00 0.11 0.01 95 1017.0
20260902211537 66 160 0.0 1.7 0.00 0.11 0.01 95 1016.9
20260902210035 66 161 0.0 3.5 0.00 0.11 0.01 95 1016.6
20260902204539 66 38 0.0 1.7 0.00 0.13 0.01 95 1016.6
20260902203036 66 35 0.0 1.7 0.00 0.13 0.01 95 1016.6
20260902201539 67 215 0.0 2.6 0.00 0.13 0.01 95 1017.0
20260902200049 67 126 0.0 2.6 0.00 0.13 0.01 95 1017.0
20260902194532 67 173 0.0 2.6 0.00 0.13 0.01 95 1016.9
20260902193032 67 176 0.9 2.6 0.00 0.13 0.01 96 1017.2
20260902191534 67 204 0.0 2.6 0.00 0.13 0.01 96 1016.7
20260902190047 66 167 0.0 2.6 0.00 0.13 0.01 95 1016.9
20260902184533 66 160 0.0 1.7 0.00 0.13 0.01 95 1017.1
20260902183030 66 207 0.9 2.6 0.00 0.13 0.01 95 1017.3
20260902181530 66 155 0.0 4.3 0.00 0.13 0.01 95 1017.7
20260902180029 66 178 0.9 2.6 0.00 0.13 0.01 95 1018.1
20260902174528 66 178 0.0 1.7 0.00 0.13 0.01 95 1018.1
20260902173028 66 178 0.9 2.6 0.00 0.13 0.01 95 1018.3
20260902171528 66 179 0.0 1.7 0.00 0.13 0.01 95 1018.1
20260902170027 66 149 0.9 3.5 0.01 0.13 0.01 95 1018.0
20260902164525 66 148 0.0 2.6 0.01 0.13 0.01 95 1017.9
20260902163026 66 202 0.0 1.7 0.01 0.13 0.01 95 1017.9
20260902161530 66 202 0.0 2.6 0.01 0.13 0.01 95 1017.9
20260902160031 66 120 0.9 2.6 0.00 0.12 0.00 95 1017.8
20260902154527 66 178 0.9 2.6 0.00 0.12 0.00 95 1018.0
20260902153024 66 232 0.0 1.7 0.00 0.12 0.00 95 1018.0
20260902151523 66 132 0.9 2.6 0.00 0.12 0.00 94 1018.1
20260902150023 66 92 0.9 2.6 0.00 0.12 0.00 95 1018.0
20260902144521 66 205 0.9 2.6 0.00 0.13 0.00 95 1017.9
20260902143021 66 192 0.9 1.7 0.00 0.13 0.00 95 1017.9
20260902141532 66 204 0.9 1.7 0.00 0.13 0.00 95 1018.4
20260902140018 66 238 0.0 1.7 0.00 0.13 0.00 95 1018.3
20260902134516 66 200 0.9 2.6 0.00 0.13 0.00 95 1017.8
20260902133014 66 146 0.0 1.7 0.00 0.13 0.00 95 1017.7
20260902131521 66 146 0.0 1.7 0.00 0.13 0.00 95 1017.5
20260902130013 66 246 0.9 2.6 0.00 0.13 0.00 95 1017.4
20260902124510 66 188 0.9 2.6 0.00 0.13 0.00 95 1017.4
20260902123010 66 138 0.9 2.6 0.00 0.13 0.00 95 1017.3
20260902121509 66 75 0.0 0.9 0.00 0.13 0.00 95 1017.2
20260902120008 66 75 0.0 0.9 0.00 0.13 0.00 95 1017.0
20260902114511 66 75 0.0 1.7 0.00 0.13 0.00 95 1017.0
20260902113004 67 75 0.0 1.7 0.00 0.13 0.00 95 1017.2
20260902111503 67 75 0.0 0.9 0.00 0.13 0.00 95 1017.1
20260902110006 67 75 0.0 0.9 0.00 0.13 0.00 95 1017.1
20260902104505 67 75 0.0 1.7 0.00 0.13 0.00 95 1016.7
20260902103100 67 75 0.0 1.7 0.00 0.13 0.00 94 1016.8
20260902101617 68 221 0.0 1.7 0.00 0.13 0.00 95 1016.9